When you browse on this site, cookies collect data to enhance your experience and personalize the content and advertising you see.
Visit our Privacy Policy to learn more. By continuing to use the site, you agree to this use of cookies and data.
  • In Hungary
  • List of Countries
  • For 7 days
  • Water Temperature
  • Satellite Maps
  • Weather Map
  • News
  • Weather Widgets
  • user-avatar
    Login

    Hourly Weather Kęty

    Today, 22 January, Tuesday

    Time Temperature Precipitation Wind Pressure Humidity
    00:00 -7°C° 0 mm 1 mps 738 mmHg 71%
    01:00 -7°C° 0 mm 1 mps 738 mmHg 70%
    02:00 -7°C° 0 mm 1 mps 738 mmHg 70%
    03:00 -7°C° 0 mm 1 mps 737 mmHg 70%
    04:00 -7°C° 0 mm 1 mps 737 mmHg 70%
    05:00 -7°C° 0 mm 1 mps 737 mmHg 70%
    06:00 -7°C° 0 mm 1 mps 736 mmHg 70%
    07:00 -8°C° 0 mm 1 mps 736 mmHg 69%
    08:00 -7°C° 0 mm 1 mps 736 mmHg 67%
    09:00 -4°C° 0 mm 1 mps 736 mmHg 65%
    10:00 -3°C° 0 mm 1 mps 736 mmHg 63%
    11:00 -2°C° 0 mm 1 mps 735 mmHg 61%
    12:00 -2°C° 0 mm 1 mps 735 mmHg 60%
    13:00 -1°C° 0 mm 1 mps 734 mmHg 58%
    14:00 -2°C° 0 mm 1 mps 734 mmHg 62%
    15:00 -2°C° 0 mm 1 mps 733 mmHg 66%
    16:00 -3°C° 0 mm 1 mps 733 mmHg 70%
    17:00 -4°C° 0 mm 1 mps 732 mmHg 72%
    18:00 -6°C° 0 mm 1 mps 732 mmHg 74%
    19:00 -8°C° 0 mm 2 mps 731 mmHg 76%
    20:00 -8°C° 0 mm 2 mps 731 mmHg 77%
    21:00 -8°C° 0 mm 2 mps 731 mmHg 79%
    22:00 -9°C° 0 mm 2 mps 731 mmHg 80%
    23:00 -9°C° 0 mm 2 mps 730 mmHg 81%

    Tomorrow, 23 January, Wednesday

    Time Temperature Precipitation Wind Pressure Humidity
    00:00 -9°C° 0 mm 2 mps 730 mmHg 81%
    01:00 -9°C° 0 mm 2 mps 729 mmHg 82%
    02:00 -9°C° 0 mm 2 mps 729 mmHg 83%
    03:00 -9°C° 0 mm 2 mps 728 mmHg 83%
    04:00 -10°C° 0 mm 2 mps 728 mmHg 84%
    05:00 -10°C° 0 mm 2 mps 728 mmHg 85%
    06:00 -10°C° 0 mm 2 mps 728 mmHg 86%
    07:00 -12°C° 0 mm 3 mps 727 mmHg 87%
    08:00 -10°C° 0 mm 3 mps 727 mmHg 84%
    09:00 -9°C° 0 mm 3 mps 728 mmHg 82%
    10:00 -9°C° 0 mm 4 mps 728 mmHg 80%
    11:00 -8°C° 0 mm 4 mps 727 mmHg 78%
    12:00 -7°C° 0 mm 4 mps 727 mmHg 77%
    13:00 -6°C° 0 mm 3 mps 727 mmHg 75%
    14:00 -6°C° 0 mm 3 mps 727 mmHg 77%
    15:00 -6°C° 0 mm 3 mps 727 mmHg 79%
    16:00 -7°C° 0 mm 3 mps 727 mmHg 81%
    17:00 -7°C° 0 mm 3 mps 727 mmHg 83%
    18:00 -8°C° 0 mm 3 mps 727 mmHg 84%
    19:00 -9°C° 0 mm 3 mps 727 mmHg 86%
    20:00 -9°C° 0 mm 3 mps 727 mmHg 86%
    21:00 -9°C° 0 mm 3 mps 728 mmHg 87%
    22:00 -9°C° 0 mm 3 mps 728 mmHg 87%
    23:00 -9°C° 0 mm 3 mps 728 mmHg 88%

    Day after tomorrow, 24 January, Thursday

    Time Temperature Precipitation Wind Pressure Humidity
    00:00 -9°C° 0 mm 3 mps 728 mmHg 88%
    01:00 -8°C° 0 mm 2 mps 728 mmHg 89%
    02:00 -8°C° 0 mm 2 mps 728 mmHg 89%
    03:00 -8°C° 0 mm 2 mps 729 mmHg 89%
    04:00 -8°C° 0 mm 2 mps 729 mmHg 89%
    05:00 -9°C° 0 mm 3 mps 729 mmHg 89%
    06:00 -8°C° 0 mm 3 mps 729 mmHg 89%
    07:00 -8°C° 0 mm 3 mps 729 mmHg 89%
    08:00 -8°C° 0 mm 3 mps 730 mmHg 87%
    09:00 -7°C° 0 mm 3 mps 730 mmHg 85%
    10:00 -7°C° 0 mm 3 mps 730 mmHg 83%
    11:00 -6°C° 0 mm 3 mps 730 mmHg 81%
    12:00 -6°C° 0 mm 3 mps 730 mmHg 79%
    13:00 -5°C° 0 mm 3 mps 729 mmHg 78%
    14:00 -6°C° 0 mm 3 mps 730 mmHg 79%
    15:00 -6°C° 0 mm 3 mps 730 mmHg 81%
    16:00 -6°C° 0 mm 3 mps 730 mmHg 83%
    17:00 -6°C° 0 mm 3 mps 730 mmHg 84%
    18:00 -7°C° 0 mm 3 mps 730 mmHg 85%
    19:00 -7°C° 0 mm 3 mps 731 mmHg 87%
    20:00 -7°C° 0 mm 3 mps 731 mmHg 87%
    21:00 -7°C° 0 mm 3 mps 731 mmHg 88%
    22:00 -7°C° 0 mm 3 mps 731 mmHg 88%
    23:00 -7°C° 0 mm 3 mps 731 mmHg 89%

    25 January, Friday

    Time Temperature Precipitation Wind Pressure Humidity
    00:00 -7°C° 0 mm 3 mps 731 mmHg 89%
    01:00 -7°C° 0 mm 3 mps 731 mmHg 89%
    02:00 -7°C° 0 mm 3 mps 731 mmHg 89%
    03:00 -7°C° 0 mm 3 mps 731 mmHg 89%
    04:00 -7°C° 0 mm 3 mps 730 mmHg 89%
    05:00 -7°C° 0.1 mm 3 mps 731 mmHg 89%
    06:00 -7°C° 0.1 mm 3 mps 731 mmHg 89%
    07:00 -7°C° 0.1 mm 3 mps 731 mmHg 89%
    08:00 -7°C° 0.1 mm 3 mps 731 mmHg 88%
    09:00 -7°C° 0.1 mm 3 mps 731 mmHg 87%
    10:00 -7°C° 0.1 mm 3 mps 731 mmHg 86%
    11:00 -6°C° 0.1 mm 3 mps 731 mmHg 85%
    12:00 -6°C° 0.1 mm 3 mps 731 mmHg 85%
    13:00 -6°C° 0.1 mm 3 mps 731 mmHg 84%
    14:00 -6°C° 0.1 mm 3 mps 731 mmHg 85%
    15:00 -6°C° 0.1 mm 3 mps 731 mmHg 85%
    16:00 -6°C° 0.1 mm 3 mps 731 mmHg 86%
    17:00 -7°C° 0.2 mm 3 mps 732 mmHg 87%
    18:00 -7°C° 0.2 mm 3 mps 732 mmHg 88%
    19:00 -7°C° 0.2 mm 3 mps 732 mmHg 88%
    20:00 -7°C° 0.1 mm 3 mps 732 mmHg 88%
    21:00 -7°C° 0.1 mm 3 mps 732 mmHg 88%
    22:00 -7°C° 0.1 mm 3 mps 732 mmHg 89%
    23:00 -7°C° 0.1 mm 3 mps 732 mmHg 89%

    26 January, Saturday

    Time Temperature Precipitation Wind Pressure Humidity
    00:00 -7°C° 0.1 mm 3 mps 732 mmHg 89%
    01:00 -7°C° 0.1 mm 2 mps 732 mmHg 89%
    02:00 -7°C° 0.1 mm 2 mps 732 mmHg 90%
    03:00 -7°C° 0.1 mm 2 mps 732 mmHg 90%
    04:00 -7°C° 0.1 mm 2 mps 732 mmHg 90%
    05:00 -7°C° 0.1 mm 2 mps 732 mmHg 90%
    06:00 -7°C° 0.1 mm 2 mps 732 mmHg 90%
    07:00 -7°C° 0.1 mm 2 mps 732 mmHg 90%
    08:00 -7°C° 0.1 mm 2 mps 732 mmHg 89%
    09:00 -6°C° 0.1 mm 2 mps 732 mmHg 89%
    10:00 -6°C° 0.1 mm 2 mps 733 mmHg 88%
    11:00 -6°C° 0.1 mm 2 mps 732 mmHg 87%
    12:00 -6°C° 0.1 mm 2 mps 732 mmHg 86%
    13:00 -5°C° 0.1 mm 2 mps 732 mmHg 86%
    14:00 -5°C° 0.1 mm 2 mps 732 mmHg 87%
    15:00 -5°C° 0.1 mm 2 mps 732 mmHg 88%
    16:00 -5°C° 0.1 mm 2 mps 732 mmHg 89%
    17:00 -6°C° 0 mm 2 mps 732 mmHg 90%
    18:00 -6°C° 0 mm 2 mps 732 mmHg 91%
    19:00 -6°C° 0 mm 2 mps 732 mmHg 92%
    20:00 -6°C° 0 mm 2 mps 732 mmHg 92%
    21:00 -6°C° 0 mm 2 mps 732 mmHg 92%
    22:00 -6°C° 0 mm 2 mps 732 mmHg 93%
    23:00 -6°C° 0 mm 2 mps 732 mmHg 93%

    27 January, Sunday

    Time Temperature Precipitation Wind Pressure Humidity
    00:00 -6°C° 0 mm 2 mps 732 mmHg 93%
    01:00 -4°C° 0 mm 1 mps 732 mmHg 93%
    02:00 -6°C° 0 mm 2 mps 732 mmHg 93%
    03:00 -6°C° 0 mm 2 mps 731 mmHg 93%
    04:00 -6°C° 0 mm 2 mps 731 mmHg 93%
    05:00 -6°C° 0 mm 2 mps 731 mmHg 93%
    06:00 -6°C° 0 mm 2 mps 731 mmHg 93%
    07:00 -6°C° 0 mm 2 mps 731 mmHg 93%
    08:00 -6°C° 0 mm 2 mps 731 mmHg 91%
    09:00 -5°C° 0 mm 2 mps 731 mmHg 89%
    10:00 -5°C° 0 mm 2 mps 731 mmHg 88%
    11:00 -4°C° 0 mm 2 mps 731 mmHg 87%
    12:00 -4°C° 0 mm 2 mps 730 mmHg 86%
    13:00 -3°C° 0 mm 2 mps 730 mmHg 85%
    14:00 -3°C° 0 mm 2 mps 730 mmHg 87%
    15:00 -4°C° 0 mm 2 mps 730 mmHg 88%
    16:00 -4°C° 0 mm 2 mps 730 mmHg 90%
    17:00 -4°C° 0 mm 2 mps 730 mmHg 91%
    18:00 -5°C° 0 mm 2 mps 730 mmHg 92%
    19:00 -5°C° 0 mm 2 mps 730 mmHg 93%
    20:00 -6°C° 0 mm 2 mps 731 mmHg 92%
    21:00 -6°C° 0 mm 2 mps 731 mmHg 92%
    22:00 -6°C° 0 mm 2 mps 731 mmHg 92%
    23:00 -6°C° 0.1 mm 2 mps 731 mmHg 92%
    Show more